Tracking 19709 objects as of 17-Jun-2019
HD Live streaming from Space Station
objects crossing your sky now

DELTA 1 DEB

Track DELTA 1 DEB now!
10-day predictions


NORAD ID: 39095
Int'l Code: 1973-086HH
Perigee: 1,507.2 km
Apogee: 1,599.6 km
Inclination: 102.3 °
Period: 117.0 minutes
Semi major axis: 7924 km
RCS: 0.0177 m2 (small)
Launch date: November 6, 1973
Source: United States (US)
Launch site: AIR FORCE WESTERN TEST RANGE (AFWTR)

Note: This is SATELLITE DEBRIS
aabbcc
Your satellite tracking list
Your tracking list is empty




NASA's NSSDC Master Catalog

Two Line Element Set (TLE):
1 39095U 73086HH  19167.14145436 +.00000001 +00000-0 +38459-3 0  9995
2 39095 102.2994 139.4830 0058313 142.3638 218.1521 12.30701999262720
Source of the keplerian elements: AFSPC